Location: Greenwich
(51.4790°N, 0.0090°E)
Time: 06:15:21
(UTC+01:00)

Tiros 1 - Pass Details

Date: 02 May 2024
Orbit: 624 x 657 km, 48.4° (Epoch: 25 May)

Event Time Altitude Azimuth Distance (km) Brightness Sun altitude
Rises 21:48:01 0° 245° (WSW) 2,958 10.8 -11.3°
Reaches altitude 10° 21:50:24 10° 240° (WSW) 2,043 9.9 -11.5°
Maximum altitude 21:54:57 50° 166° (SSE) 820 7.3 -12.0°
Drops below altitude 10° 21:59:28 10° 91° (E) 2,026 9.3 -12.5°
Enters shadow 21:59:48 - 90° (E) 2,152 9.4 -12.5°
